Probability
15 11 10 10 8 7 6 6 6 4 3 3 3 4 4 4 4 5 5 4 2 1 0 0 0 0 0 0 0 0 0 0 0 0 0 1 3 5 6 4 2 1 0
13 10 9 10 8 7 6 6 6 4 3 3 3 4 5 5 5 5 4 3 2 1 0 0 0 0 0 0 0 0 0 0 0 0 0 0 2 3 5 6 4 2 1
10 8 7 9 9 7 6 6 6 4 3 3 3 3 4 5 5 4 3 3 2 1 1 1 1 0 0 0 0 0 0 0 0 1 0 0 0 2 5 7 6 5 5
11 8 8 9 8 7 7 7 6 4 3 3 3 3 3 4 4 3 3 3 3 1 1 1 1 1 1 1 0 0 0 1 1 1 0 0 0 2 5 7 7 7 7
12 10 10 10 8 8 8 8 6 3 3 3 3 3 3 3 3 3 3 3 3 2 1 1 1 2 2 2 1 0 1 3 3 1 0 0 1 3 4 5 6 7 8
11 10 10 11 9 8 8 8 5 3 2 2 3 4 4 4 3 3 4 3 3 3 2 1 1 2 3 2 1 0 1 2 2 0 0 0 2 4 6 6 6 7 7
11 10 10 11 11 9 7 6 4 3 2 2 2 4 5 5 4 4 5 4 3 3 3 3 2 2 2 2 1 0 1 1 0 0 0 0 2 5 7 8 8 6 6
13 12 12 12 12 10 8 6 5 4 3 3 3 4 5 6 5 6 5 4 3 3 3 3 2 1 1 1 0 0 1 2 1 0 0 0 1 2 4 6 6 5 4
15 14 12 11 11 10 10 9 8 6 4 3 3 3 4 5 5 6 6 4 3 3 2 1 1 0 0 0 0 0 1 2 1 0 0 0 0 0 1 2 3 3 3
14 13 12 10 9 9 10 11 10 7 4 3 4 4 5 4 5 6 6 6 4 3 2 1 2 2 1 0 0 0 1 1 1 0 0 0 0 0 1 1 2 3 3
10 11 11 11 9 7 8 11 11 9 6 5 5 6 6 6 6 6 8 9 7 4 2 3 5 5 3 1 0 0 0 0 0 0 0 1 1 1 2 2 3 4 4
7 8 10 11 9 7 8 10 11 10 9 7 6 6 6 6 5 6 9 12 10 6 3 4 6 6 4 1 0 1 0 0 0 0 1 2 3 3 3 3 4 5 5
9 10 12 12 11 10 10 11 11 12 11 10 8 8 7 6 4 5 10 12 11 7 4 4 5 4 2 1 1 1 1 1 1 1 1 2 4 5 5 5 4 5 5
13 15 18 19 18 18 17 15 14 14 13 11 12 11 9 8 7 7 10 13 12 9 6 5 4 2 0 1 3 3 2 1 2 2 2 2 6 8 7 5 5 6 6
20 22 25 28 30 29 26 21 18 17 15 14 15 13 12 13 13 12 13 14 14 12 9 7 4 2 2 3 4 4 3 3 4 5 4 5 8 9 7 6 6 7 7
31 31 33 35 37 36 31 26 22 20 18 17 17 15 15 16 16 15 14 14 13 13 11 8 6 5 5 6 7 7 6 7 8 8 7 8 9 8 8 6 5 6 8
41 41 40 40 41 39 33 27 22 20 19 20 20 19 17 17 17 17 15 14 13 12 11 9 8 8 8 8 9 9 9 10 10 9 9 9 9 9 8 7 5 5 6
47 47 44 42 44 41 35 28 21 20 21 23 25 24 21 19 19 19 17 15 15 14 11 10 10 8 7 8 9 9 9 10 11 10 10 10 10 10 10 8 6 5 4
50 49 45 45 46 43 38 31 25 24 24 25 29 29 26 23 22 21 19 16 15 14 12 11 11 8 6 6 8 8 10 11 11 10 9 9 10 11 10 9 7 5 4
50 49 47 47 49 47 42 37 33 31 29 28 30 31 28 25 22 20 18 15 13 12 12 12 11 8 6 7 7 8 11 13 12 11 10 10 11 12 11 8 7 5 5
49 49 47 47 48 48 44 41 38 36 33 30 29 29 27 22 19 16 14 14 14 13 12 12 11 9 7 8 8 8 10 12 12 11 11 10 10 11 9 8 7 7 6
48 48 46 44 44 45 43 40 37 34 32 30 28 27 24 20 15 13 12 12 13 14 13 13 11 8 8 9 8 8 7 8 9 10 11 11 11 10 8 7 8 8 7
45 44 42 42 43 43 41 38 34 31 31 31 30 27 24 20 15 12 11 12 12 12 13 14 12 8 7 7 6 6 5 6 6 7 9 11 11 11 9 7 8 9 8
40 39 40 43 44 42 39 37 34 32 32 33 31 28 25 22 18 13 12 13 13 12 12 13 13 10 7 5 4 4 4 5 5 6 7 9 10 11 10 8 8 11 12
37 37 40 43 42 39 37 37 36 34 33 33 30 27 24 22 20 16 15 16 16 12 10 11 13 11 8 6 4 3 5 6 6 5 6 6 8 10 10 9 9 11 13
36 37 40 41 40 38 36 36 35 33 33 32 29 26 22 21 20 18 17 17 17 13 9 10 13 12 10 7 4 4 7 8 7 6 6 5 6 9 10 10 10 10 10
Wind_Speed
14 14 13 12 10 9 9 9 8 8 8 8 8 8 9 9 9 9 9 8 8 8 8 8 8 7 7 7 7 7 7 8 8 9 10 11 11 11 11 11 10 9 13
16 15 14 11 10 10 9 8 8 8 8 8 8 8 8 8 8 8 8 8 7 7 8 8 7 7 7 6 6 6 6 7 7 8 10 10 10 11 11 11 11 8 13
17 15 13 11 10 10 9 8 8 8 7 7 7 7 8 8 8 8 8 8 7 7 7 8 7 7 7 6 6 6 6 6 6 7 8 7 8 11 11 12 12 12 12
16 13 12 11 10 9 9 8 8 8 7 7 7 7 7 8 8 7 7 8 7 7 7 7 7 7 7 6 6 6 5 4 3 3 3 5 8 12 13 12 12 12 11
15 13 13 12 10 9 9 8 7 7 7 6 6 7 8 8 8 7 7 7 7 7 7 7 7 6 6 6 5 4 3 3 2 3 3 6 7 12 13 12 11 11 11
14 14 13 12 11 10 9 8 7 7 6 6 7 7 7 7 7 7 7 7 7 7 6 6 6 6 5 5 4 2 1 0 1 1 5 8 8 12 13 12 11 10 10
14 14 13 12 11 10 9 8 7 7 7 6 6 6 6 6 6 6 6 6 6 6 6 5 5 5 4 3 3 2 2 2 0 2 6 8 8 12 12 11 11 10 9
14 14 13 12 12 10 9 8 7 6 6 6 6 6 5 5 5 5 5 5 5 5 5 5 4 4 4 3 2 1 3 3 1 3 6 8 10 11 11 10 9 9 8
13 13 11 11 10 10 9 8 7 6 6 6 6 5 4 4 5 5 5 5 4 4 4 3 3 3 3 2 1 1 3 4 3 2 5 6 9 10 9 8 9 9 8
11 11 10 10 9 8 8 8 7 7 7 6 5 5 4 4 4 5 5 4 4 4 3 3 3 3 3 3 3 3 3 3 1 2 4 7 10 9 8 8 9 9 9
9 9 9 9 8 7 8 8 8 8 7 6 5 5 5 4 4 4 4 6 5 4 4 3 4 4 4 5 5 5 4 2 2 3 5 9 9 9 8 8 9 9 10
9 9 8 7 6 5 5 6 5 5 5 4 3 4 3 1 1 3 5 7 5 5 4 5 5 5 5 3 5 5 2 3 2 4 6 10 9 8 7 7 8 9 10
9 8 8 7 6 5 4 4 2 2 3 3 3 3 2 1 1 2 2 3 3 4 3 4 4 3 3 2 2 3 2 1 2 3 6 10 9 8 7 7 8 9 10
7 8 7 7 5 4 3 3 3 2 2 2 2 1 1 1 1 1 1 1 2 1 2 2 2 2 2 2 2 2 2 2 3 3 5 9 8 8 8 8 8 9 10
7 7 7 6 5 3 3 1 2 2 2 2 2 1 0 0 0 1 0 0 1 0 1 1 0 1 1 1 1 1 1 2 3 4 4 8 8 7 8 9 9 10 11
7 7 6 6 6 4 2 1 1 2 2 1 1 1 0 0 1 1 0 0 0 0 0 1 0 1 1 1 0 1 1 1 3 4 4 6 8 8 8 10 10 11 11
7 6 6 6 6 4 3 2 2 1 2 1 1 1 1 1 1 1 0 1 0 0 0 1 1 1 1 1 1 1 1 1 2 3 4 4 5 7 8 10 11 10 10
8 7 5 5 6 5 3 1 1 1 1 2 2 1 1 1 1 0 0 0 0 0 0 0 1 1 1 1 1 1 1 2 2 2 3 3 4 4 7 9 10 10 9
7 7 6 4 5 5 3 2 1 1 1 1 2 1 1 1 1 0 1 1 1 0 0 1 0 1 1 1 2 2 1 1 2 2 3 3 3 4 4 7 10 9 9
8 7 6 5 4 4 3 2 1 1 2 1 1 2 2 1 0 0 1 1 1 1 1 1 1 1 1 1 2 1 0 0 1 2 2 2 3 5 5 5 5 6 9
9 8 7 6 4 3 2 2 2 2 1 1 2 3 2 1 1 0 1 1 0 0 0 0 0 1 1 1 1 0 0 1 1 1 1 1 2 3 4 5 4 4 4
9 8 7 6 5 4 2 1 1 1 2 2 2 3 2 1 1 1 0 0 0 0 0 0 1 1 1 1 0 0 0 0 1 1 1 1 1 1 3 4 4 4 4
8 8 7 5 5 4 2 2 1 1 1 1 2 2 2 1 1 0 1 0 0 0 1 1 1 1 1 1 1 1 1 1 0 1 0 1 1 1 1 2 3 4 4
9 8 7 6 5 3 3 2 2 2 1 1 1 1 2 1 1 1 0 0 1 1 1 1 1 2 2 2 1 1 1 1 1 0 1 0 1 1 2 2 2 3 3
9 9 8 6 5 4 3 3 2 1 1 1 1 1 1 1 1 1 0 1 1 1 1 1 1 1 1 2 1 1 1 1 2 2 1 1 1 1 2 2 2 2 3
8 8 8 7 6 5 4 3 2 2 1 1 0 1 0 0 1 0 0 1 1 2 2 2 2 2 2 2 2 1 1 1 2 1 2 2 1 1 1 2 2 3 3
Wind_Direction
106 113 112 109 106 103 101 98 93 87 82 77 73 71 70 72 73 74 79 83 88 91 93 96 93 88 84 83 90 98 99 103 112 119 128 131 130 127 129 127 131 122 122
111 113 113 110 109 106 104 101 98 92 87 82 77 73 73 77 78 78 80 83 88 93 93 94 93 90 88 88 96 105 105 104 113 125 136 138 134 130 125 120 117 119 125
112 117 115 110 110 109 106 104 101 97 92 87 82 78 76 80 83 82 82 83 85 92 95 93 91 90 91 93 97 106 106 105 118 134 145 141 137 134 129 124 124 125 129
114 120 116 115 111 111 109 106 104 102 98 92 89 85 83 84 87 86 85 85 84 89 94 94 93 90 92 94 99 108 112 116 136 166 152 135 132 130 130 131 132 134 136
112 116 118 119 115 113 110 109 109 107 104 98 93 90 88 88 88 89 88 87 85 88 91 96 95 90 90 89 96 107 121 142 188 185 130 121 122 130 133 135 136 139 139
120 120 122 124 122 120 115 110 108 110 108 104 99 93 90 91 90 92 92 91 89 89 91 95 96 93 90 89 89 92 91 299 267 151 117 121 124 132 135 135 138 141 141
121 121 128 129 127 125 124 119 113 112 111 109 107 102 97 98 99 98 99 96 94 94 97 98 100 99 94 89 78 45 10 338 270 88 107 118 125 132 133 133 135 139 143
120 121 129 134 134 132 130 127 122 120 120 120 119 114 110 109 108 105 105 103 100 100 102 104 106 109 106 94 68 357 337 336 8 74 98 110 122 125 129 132 137 145 149
119 123 134 139 141 142 136 134 132 133 133 132 132 130 130 130 126 121 117 117 117 117 120 120 126 136 135 134 131 331 325 325 327 77 103 112 123 128 134 140 149 152 159
120 126 136 143 147 151 146 142 138 141 145 145 151 156 156 159 159 148 139 137 138 138 145 150 159 171 181 187 199 228 263 295 266 107 100 119 126 132 141 149 157 164 169
126 131 137 143 144 154 151 143 149 152 160 161 170 177 179 184 171 166 146 147 160 165 174 180 188 194 204 210 212 226 246 242 153 109 106 126 133 138 147 157 163 166 168
139 140 138 133 138 150 140 143 159 161 157 180 165 172 199 209 150 145 144 159 174 187 196 209 216 217 220 213 206 213 228 218 143 109 120 133 137 141 149 165 170 168 169
147 143 138 137 143 148 133 144 152 149 153 184 159 179 192 180 158 132 147 158 185 194 205 201 213 229 223 204 194 183 208 183 108 107 129 138 143 144 145 155 165 170 174
143 141 133 131 135 131 124 142 146 142 150 158 145 181 160 192 168 130 147 161 186 199 193 205 208 225 238 229 209 175 180 149 112 116 138 143 147 151 153 157 162 169 169
144 138 129 126 118 111 108 129 126 129 137 129 130 154 130 201 117 118 130 169 230 173 186 252 237 245 251 232 207 168 192 132 132 127 136 151 151 157 165 164 162 160 162
144 137 133 133 122 120 120 118 104 110 103 104 118 109 149 61 63 62 94 322 316 21 342 295 354 314 301 318 274 193 222 114 140 143 149 155 159 161 166 167 165 161 164
144 136 135 139 129 133 136 147 120 112 124 108 99 110 128 68 67 47 73 219 252 302 311 346 334 289 255 255 251 233 202 162 151 142 155 156 159 167 167 169 172 172 173
146 138 144 153 139 141 138 148 129 139 121 130 119 105 105 79 77 74 76 31 296 211 195 219 243 262 268 279 264 251 214 172 166 162 157 158 158 161 173 175 174 175 177
139 140 150 139 136 147 147 154 151 128 100 107 115 124 131 173 159 148 101 33 297 235 214 255 112 276 275 287 263 232 220 165 172 173 156 165 158 152 155 171 176 177 176
143 144 142 135 133 140 146 156 154 134 124 135 120 109 114 136 115 108 140 102 300 348 6 2 53 286 272 269 278 282 314 103 205 156 172 167 167 162 152 154 166 173 175
145 142 142 143 139 144 152 171 172 162 155 130 111 100 115 125 119 206 16 147 219 282 79 359 351 252 263 266 300 314 136 163 190 146 163 153 173 156 151 158 166 160 169
146 146 145 147 149 154 159 175 170 166 173 147 113 113 120 122 145 186 147 261 143 358 1 330 310 276 266 210 243 261 230 235 340 210 142 165 159 143 153 168 164 165 165
147 148 150 150 150 160 164 150 140 134 140 112 115 123 126 137 155 150 181 217 214 206 181 232 257 266 270 256 204 197 201 203 293 328 131 112 117 129 151 147 146 151 160
153 147 140 143 141 148 152 156 172 164 164 136 127 135 141 152 164 147 132 255 267 274 203 232 211 272 260 262 259 250 219 149 161 203 325 53 136 176 181 172 160 147 145
151 149 147 146 144 149 155 152 161 147 140 102 106 122 142 147 131 97 142 252 250 265 246 251 251 255 269 272 266 255 241 203 190 188 217 208 232 206 174 168 155 151 142
148 148 148 145 148 157 165 161 156 154 144 123 147 148 188 188 148 76 226 256 244 252 255 246 240 244 258 269 273 261 238 217 189 193 202 205 209 214 183 159 166 164 159